Time,TemperatureF,DewpointF,PressureIn,WindDirection,WindDirectionDegrees,WindSpeedMPH,WindSpeedGustMPH,Humidity,HourlyPrecipIn,Conditions,Clouds,dailyrainin,SoftwareType,DateUTC
2013-03-02 00:01:00,36.4,34.0,29.59,NNW,336,2.0,7.0,91,0.00,,---,0.01,VWS V14.01,2013-03-02 05:01:00,
2013-03-02 00:16:00,36.5,34.1,29.59,NW,319,3.0,7.0,91,0.00,,---,0.00,VWS V14.01,2013-03-02 05:16:00,
2013-03-02 00:31:00,36.4,34.0,29.59,NNW,327,7.0,10.0,91,0.00,,---,0.00,VWS V14.01,2013-03-02 05:31:00,
2013-03-02 00:46:00,36.4,34.3,29.58,NNW,335,6.0,10.0,92,0.00,,---,0.00,VWS V14.01,2013-03-02 05:46:00,
2013-03-02 01:01:00,36.3,34.2,29.59,NNW,333,6.0,13.0,92,0.00,,---,0.00,VWS V14.01,2013-03-02 06:01:00,
2013-03-02 01:16:00,36.3,34.2,29.58,NW,312,5.0,10.0,92,0.00,,---,0.00,VWS V14.01,2013-03-02 06:16:00,
2013-03-02 01:31:00,36.3,33.9,29.58,NW,312,6.0,13.0,91,0.00,,---,0.00,VWS V14.01,2013-03-02 06:31:00,
2013-03-02 01:46:00,36.4,34.0,29.58,WNW,298,7.0,11.0,91,0.00,,---,0.00,VWS V14.01,2013-03-02 06:46:00,
2013-03-02 02:01:00,36.4,34.0,29.58,WNW,292,6.0,9.0,91,0.00,,---,0.00,VWS V14.01,2013-03-02 07:01:00,
2013-03-02 02:16:00,36.5,33.8,29.58,NW,315,5.0,12.0,90,0.00,,---,0.00,VWS V14.01,2013-03-02 07:16:00,
2013-03-02 02:31:00,36.6,33.4,29.58,WNW,293,7.0,11.0,88,0.00,,---,0.00,VWS V14.01,2013-03-02 07:31:00,
2013-03-02 02:46:00,36.8,33.0,29.58,NNW,337,8.0,13.0,86,0.00,,---,0.00,VWS V14.01,2013-03-02 07:46:00,
2013-03-02 03:01:00,36.7,32.6,29.58,NW,321,5.0,15.0,85,0.00,,---,0.00,VWS V14.01,2013-03-02 08:01:00,
2013-03-02 03:16:00,36.5,32.4,29.58,NW,305,9.0,14.0,85,0.00,,---,0.00,VWS V14.01,2013-03-02 08:16:00,
2013-03-02 03:31:00,36.2,32.4,29.58,NW,312,8.0,16.0,86,0.00,,---,0.00,VWS V14.01,2013-03-02 08:31:00,
2013-03-02 03:46:00,36.4,32.3,29.58,NW,314,6.0,16.0,85,0.00,,---,0.00,VWS V14.01,2013-03-02 08:46:00,
2013-03-02 04:01:00,36.4,32.3,29.58,WNW,303,6.0,11.0,85,0.00,,---,0.00,VWS V14.01,2013-03-02 09:01:00,
2013-03-02 04:16:00,36.3,31.9,29.58,WNW,290,8.0,14.0,84,0.00,,---,0.00,VWS V14.01,2013-03-02 09:16:00,
2013-03-02 04:31:00,36.1,31.7,29.58,WNW,298,11.0,14.0,84,0.00,,---,0.00,VWS V14.01,2013-03-02 09:31:00,
2013-03-02 04:46:00,36.2,31.8,29.58,NW,319,4.0,13.0,84,0.00,,---,0.00,VWS V14.01,2013-03-02 09:46:00,
2013-03-02 05:01:00,36.2,31.8,29.58,NW,304,6.0,13.0,84,0.00,,---,0.00,VWS V14.01,2013-03-02 10:01:00,
2013-03-02 05:16:00,36.2,31.8,29.59,WNW,296,7.0,12.0,84,0.00,,---,0.00,VWS V14.01,2013-03-02 10:16:00,
2013-03-02 05:31:00,36.1,31.7,29.59,NW,306,8.0,14.0,84,0.00,,---,0.00,VWS V14.01,2013-03-02 10:31:00,
2013-03-02 05:46:00,36.0,31.6,29.59,WNW,288,11.0,11.0,84,0.00,,---,0.00,VWS V14.01,2013-03-02 10:46:00,
2013-03-02 06:01:00,36.0,31.4,29.59,WNW,299,6.0,13.0,83,0.00,,---,0.00,VWS V14.01,2013-03-02 11:01:00,
2013-03-02 06:16:00,35.9,31.0,29.59,NW,315,6.0,12.0,82,0.00,,---,0.00,VWS V14.01,2013-03-02 11:16:00,
2013-03-02 06:31:00,35.9,31.0,29.60,WNW,301,6.0,14.0,82,0.00,,---,0.00,VWS V14.01,2013-03-02 11:31:00,
2013-03-02 06:46:00,35.8,30.9,29.60,WNW,287,3.0,11.0,82,0.00,,---,0.00,VWS V14.01,2013-03-02 11:46:00,
2013-03-02 07:01:00,35.7,30.5,29.60,NW,312,3.0,14.0,81,0.00,,---,0.00,VWS V14.01,2013-03-02 12:01:00,
2013-03-02 07:16:00,35.8,30.5,29.60,NW,323,11.0,17.0,81,0.00,,---,0.00,VWS V14.01,2013-03-02 12:16:00,
2013-03-02 07:31:00,36.0,30.8,29.61,NNW,327,6.0,15.0,81,0.00,,---,0.00,VWS V14.01,2013-03-02 12:31:00,
2013-03-02 07:46:00,36.2,30.9,29.60,NW,316,6.0,16.0,81,0.00,,---,0.00,VWS V14.01,2013-03-02 12:46:00,
2013-03-02 08:01:00,36.3,30.7,29.60,NW,323,10.0,15.0,80,0.00,,---,0.00,VWS V14.01,2013-03-02 13:01:00,
2013-03-02 08:16:00,36.4,30.8,29.61,WNW,300,7.0,16.0,80,0.00,,---,0.00,VWS V14.01,2013-03-02 13:16:00,
2013-03-02 08:31:00,36.4,30.5,29.61,WNW,303,9.0,18.0,79,0.00,,---,0.00,VWS V14.01,2013-03-02 13:31:00,
2013-03-02 08:46:00,37.2,31.0,29.61,NW,318,8.0,14.0,78,0.00,,---,0.00,VWS V14.01,2013-03-02 13:46:00,
2013-03-02 09:01:00,36.7,30.5,29.61,NW,311,13.0,16.0,78,0.00,,---,0.00,VWS V14.01,2013-03-02 14:01:00,
2013-03-02 09:16:00,37.1,30.9,29.61,NW,321,5.0,14.0,78,0.00,,---,0.00,VWS V14.01,2013-03-02 14:16:00,
2013-03-02 09:31:00,37.1,30.9,29.60,NW,306,7.0,13.0,78,0.00,,---,0.00,VWS V14.01,2013-03-02 14:31:00,
2013-03-02 09:46:00,37.5,31.3,29.60,NW,307,9.0,14.0,78,0.00,,---,0.00,VWS V14.01,2013-03-02 14:46:00,
2013-03-02 10:01:00,37.9,31.0,29.60,West,265,10.0,14.0,76,0.00,,---,0.00,VWS V14.01,2013-03-02 15:01:00,
2013-03-02 10:16:00,38.2,31.3,29.60,NW,316,9.0,14.0,76,0.00,,---,0.00,VWS V14.01,2013-03-02 15:16:00,
2013-03-02 10:31:00,38.2,30.7,29.60,NW,311,5.0,14.0,74,0.00,,---,0.00,VWS V14.01,2013-03-02 15:31:00,
2013-03-02 10:46:00,39.0,31.1,29.60,NW,311,12.0,15.0,73,0.00,,---,0.00,VWS V14.01,2013-03-02 15:46:00,
2013-03-02 11:01:00,39.2,31.6,29.60,WNW,298,7.0,18.0,74,0.00,,---,0.00,VWS V14.01,2013-03-02 16:01:00,
2013-03-02 11:16:00,39.3,31.0,29.60,NNW,340,9.0,15.0,72,0.00,,---,0.00,VWS V14.01,2013-03-02 16:16:00,
2013-03-02 11:31:00,39.6,30.6,29.60,NE,44,10.0,15.0,70,0.00,,---,0.00,VWS V14.01,2013-03-02 16:31:00,
2013-03-02 11:46:00,40.0,31.4,29.59,NW,304,8.0,15.0,71,0.00,,---,0.00,VWS V14.01,2013-03-02 16:46:00,
2013-03-02 12:01:00,40.3,31.0,29.58,NNE,22,9.0,16.0,69,0.00,,---,0.00,VWS V14.01,2013-03-02 17:01:00,
2013-03-02 12:16:00,40.2,30.9,29.58,NE,42,7.0,14.0,69,0.00,,---,0.00,VWS V14.01,2013-03-02 17:16:00,
2013-03-02 12:31:00,40.6,30.5,29.58,NW,317,10.0,13.0,67,0.00,,---,0.00,VWS V14.01,2013-03-02 17:31:00,
2013-03-02 12:46:00,40.6,30.9,29.57,NW,325,10.0,15.0,68,0.00,,---,0.00,VWS V14.01,2013-03-02 17:46:00,
2013-03-02 13:01:00,41.5,30.6,29.57,NW,325,7.0,17.0,65,0.00,,---,0.00,VWS V14.01,2013-03-02 18:01:00,
2013-03-02 13:16:00,41.3,30.4,29.57,NNW,328,6.0,14.0,65,0.00,,---,0.00,VWS V14.01,2013-03-02 18:16:00,
2013-03-02 13:31:00,41.4,30.1,29.58,WNW,298,8.0,14.0,64,0.00,,---,0.00,VWS V14.01,2013-03-02 18:31:00,
2013-03-02 13:46:00,41.9,30.2,29.58,NNW,338,4.0,14.0,63,0.00,,---,0.00,VWS V14.01,2013-03-02 18:46:00,
2013-03-02 14:01:00,42.2,30.1,29.58,NW,304,8.0,10.0,62,0.00,,---,0.00,VWS V14.01,2013-03-02 19:01:00,
2013-03-02 14:16:00,41.3,28.9,29.58,WNW,300,4.0,11.0,61,0.00,,---,0.00,VWS V14.01,2013-03-02 19:16:00,
2013-03-02 14:31:00,40.9,32.6,29.58,SSW,202,7.0,14.0,72,0.00,,---,0.00,VWS V14.01,2013-03-02 19:31:00,
2013-03-02 14:46:00,40.6,32.6,29.58,SSW,213,7.0,11.0,73,0.00,,---,0.00,VWS V14.01,2013-03-02 19:46:00,
2013-03-02 15:01:00,41.0,32.7,29.58,SSW,200,5.0,11.0,72,0.00,,---,0.00,VWS V14.01,2013-03-02 20:01:00,
2013-03-02 15:16:00,41.6,32.6,29.57,WSW,238,5.0,10.0,70,0.00,,---,0.00,VWS V14.01,2013-03-02 20:16:00,
2013-03-02 15:31:00,41.7,33.3,29.57,SW,230,4.0,10.0,72,0.00,,---,0.00,VWS V14.01,2013-03-02 20:31:00,
2013-03-02 15:46:00,40.7,32.7,29.57,SW,232,5.0,10.0,73,0.00,,---,0.00,VWS V14.01,2013-03-02 20:46:00,
2013-03-02 16:01:00,40.2,32.2,29.57,SW,221,4.0,9.0,73,0.00,,---,0.00,VWS V14.01,2013-03-02 21:01:00,
2013-03-02 16:16:00,39.3,32.0,29.57,WSW,251,4.0,10.0,75,0.00,,---,0.00,VWS V14.01,2013-03-02 21:16:00,
2013-03-02 16:31:00,39.6,32.3,29.57,WSW,254,5.0,8.0,75,0.00,,---,0.00,VWS V14.01,2013-03-02 21:31:00,
2013-03-02 16:46:00,39.6,32.3,29.57,West,275,6.0,11.0,75,0.00,,---,0.00,VWS V14.01,2013-03-02 21:46:00,
2013-03-02 17:01:00,38.9,32.3,29.57,West,262,8.0,11.0,77,0.00,,---,0.00,VWS V14.01,2013-03-02 22:01:00,
2013-03-02 17:16:00,38.9,32.6,29.57,WSW,255,3.0,9.0,78,0.00,,---,0.00,VWS V14.01,2013-03-02 22:16:00,
2013-03-02 17:31:00,38.4,31.5,29.58,WNW,286,2.0,7.0,76,0.00,,---,0.00,VWS V14.01,2013-03-02 22:31:00,
2013-03-02 17:46:00,38.4,31.2,29.59,WNW,286,1.0,3.0,75,0.00,,---,0.00,VWS V14.01,2013-03-02 22:46:00,
2013-03-02 18:01:00,38.4,31.2,29.59,WSW,244,1.0,4.0,75,0.00,,---,0.00,VWS V14.01,2013-03-02 23:01:00,
2013-03-02 18:16:00,38.4,31.2,29.60,WSW,239,2.0,4.0,75,0.00,,---,0.00,VWS V14.01,2013-03-02 23:16:00,
2013-03-02 18:31:00,38.5,32.2,29.60,SW,225,2.0,5.0,78,0.00,,---,0.00,VWS V14.01,2013-03-02 23:31:00,
2013-03-02 18:46:00,38.4,32.5,29.60,West,259,4.0,7.0,79,0.00,,---,0.00,VWS V14.01,2013-03-02 23:46:00,
2013-03-02 19:01:00,38.4,32.5,29.60,WSW,256,2.0,7.0,79,0.00,,---,0.00,VWS V14.01,2013-03-03 00:01:00,
2013-03-02 19:16:00,38.5,32.9,29.60,West,276,4.0,7.0,80,0.00,,---,0.00,VWS V14.01,2013-03-03 00:16:00,
2013-03-02 19:31:00,38.4,32.8,29.59,West,277,5.0,6.0,80,0.00,,---,0.00,VWS V14.01,2013-03-03 00:31:00,
2013-03-02 19:46:00,38.4,33.1,29.60,WSW,249,3.0,8.0,81,0.00,,---,0.00,VWS V14.01,2013-03-03 00:46:00,
2013-03-02 20:01:00,38.2,33.2,29.60,West,259,4.0,10.0,82,0.00,,---,0.00,VWS V14.01,2013-03-03 01:01:00,
2013-03-02 20:16:00,38.0,33.0,29.60,WSW,250,5.0,12.0,82,0.00,,---,0.00,VWS V14.01,2013-03-03 01:16:00,
2013-03-02 20:31:00,37.9,32.6,29.60,WSW,257,12.0,13.0,81,0.00,,---,0.00,VWS V14.01,2013-03-03 01:31:00,
2013-03-02 20:46:00,37.9,32.9,29.60,West,277,7.0,13.0,82,0.00,,---,0.00,VWS V14.01,2013-03-03 01:46:00,
2013-03-02 21:01:00,37.9,33.2,29.59,West,263,9.0,11.0,83,0.00,,---,0.00,VWS V14.01,2013-03-03 02:01:00,
2013-03-02 21:16:00,37.9,33.5,29.59,WSW,254,6.0,10.0,84,0.00,,---,0.00,VWS V14.01,2013-03-03 02:16:00,
2013-03-02 21:31:00,37.9,33.8,29.58,West,273,6.0,10.0,85,0.00,,---,0.00,VWS V14.01,2013-03-03 02:31:00,
2013-03-02 21:46:00,37.8,34.0,29.58,WNW,290,3.0,9.0,86,0.00,,---,0.00,VWS V14.01,2013-03-03 02:46:00,
2013-03-02 22:01:00,37.8,34.3,29.58,West,275,4.0,9.0,87,0.00,,---,0.00,VWS V14.01,2013-03-03 03:01:00,
2013-03-02 22:16:00,37.9,34.7,29.57,West,266,3.0,9.0,88,0.00,,---,0.00,VWS V14.01,2013-03-03 03:16:00,
2013-03-02 22:31:00,37.9,35.0,29.57,West,272,6.0,9.0,89,0.00,,---,0.00,VWS V14.01,2013-03-03 03:31:00,
2013-03-02 22:46:00,37.9,35.2,29.57,West,267,6.0,9.0,90,0.00,,---,0.00,VWS V14.01,2013-03-03 03:46:00,
2013-03-02 23:01:00,38.0,35.3,29.56,WNW,290,4.0,9.0,90,0.00,,---,0.00,VWS V14.01,2013-03-03 04:01:00,
2013-03-02 23:16:00,38.0,35.3,29.56,WNW,288,3.0,8.0,90,0.00,,---,0.00,VWS V14.01,2013-03-03 04:16:00,
2013-03-02 23:31:00,37.5,34.6,29.56,WNW,292,2.0,6.0,89,0.00,,---,0.00,VWS V14.01,2013-03-03 04:31:00,
2013-03-02 23:46:00,37.4,33.6,29.56,WNW,303,3.0,8.0,86,0.00,,---,0.00,VWS V14.01,2013-03-03 04:46:00,